New York Downtown Manhattan/w, NY

11:38 AM EDT on October 17, 2019 (GMT -0400)
New York Downtown Manhattan/w

Weather History for KJRB - August, 2019

Change the Weather History Date:

Sunday, August 11, 2019

  Actual Average (WUND) Record (WUND)
Temperature  
Mean Temperature 75 °F -  
Max Temperature 84 °F - - (-1)
Min Temperature 68 °F - - (-1)
Cooling Degree Days 10    
Growing Degree Days 25 (Base 50)    
Moisture  
Dew Point 56 °F    
Average Humidity 50    
Maximum Humidity 65    
Minimum Humidity 34    
Precipitation  
Precipitation 0.00 in - - ()
Sea Level Pressure  
Sea Level Pressure 30.00 in    
Wind  
Wind Speed 4 mph (WSW)    
Max Wind Speed 13 mph    
Max Gust Speed 37 mph    
Visibility 10 miles    
Events Rain    
Averages and records for this station are not official NWS values.
T = Trace of Precipitation, MM = Missing Value Source: NWS Daily Summary

Daily Weather History Graph

Daily Weather History Graph

Search for Another Location

Airport or City:

Astronomy

Aug. 11, 2019 Rise Set
Actual Time 6:02 AM EDT 7:59 PM EDT
Civil Twilight 5:32 AM EDT 8:29 PM EDT
Nautical Twilight 4:56 AM EDT 9:05 PM EDT
Astronomical Twilight 4:16 AM EDT 9:44 PM EDT
Moon 5:37 PM EDT (8/11) 2:19 AM EDT (8/11)
Length of Visible Light 14h 56m
Length of Day
13h 57m
Waxing Gibbous, 87% of the Moon is Illuminated
Aug 11
Waxing Gibbous
Aug 15
Full
Aug 23
Last Quarter
Aug 30
New
Sep 5
First Quarter

Hourly Weather History & Observations

Time (EDT) Temp. Heat Index Dew Point Humidity Pressure Visibility Wind Dir Wind Speed Gust Speed Precip Events Conditions
12:56 AM 73.0 °F - 53.1 °F 49% 29.96 in 10.0 mi NE 4.6 mph - N/A   Clear
1:56 AM 72.0 °F - 53.1 °F 51% 29.95 in 10.0 mi West 3.5 mph - N/A   Clear
2:56 AM 71.1 °F - 53.1 °F 53% 29.95 in 10.0 mi West 5.8 mph - N/A   Clear
3:56 AM 71.1 °F - 57.0 °F 61% 29.95 in 10.0 mi Calm Calm - N/A   Clear
4:56 AM 70.0 °F - 54.0 °F 57% 29.96 in 10.0 mi Calm Calm - N/A   Clear
5:56 AM 69.1 °F - 57.0 °F 65% 29.99 in 10.0 mi NE 4.6 mph - N/A   Clear
6:56 AM 68.0 °F - 55.0 °F 63% 30.02 in 10.0 mi Calm Calm - N/A   Clear
7:56 AM 70.0 °F - 57.0 °F 63% 30.03 in 10.0 mi Variable 4.6 mph - N/A   Clear
9:56 AM 75.9 °F - 55.9 °F 50% 30.04 in 10.0 mi Variable 3.5 mph - N/A   Clear
10:56 AM 79.0 °F - 55.0 °F 44% 30.04 in 10.0 mi SW 5.8 mph - N/A   Clear
11:56 AM 81.0 °F 80.7 °F 55.0 °F 41% 30.04 in 10.0 mi WSW 9.2 mph - N/A   Clear
12:56 PM 81.0 °F 80.4 °F 53.1 °F 38% 30.03 in 10.0 mi WSW 5.8 mph - N/A   Scattered Clouds
1:56 PM 82.0 °F - 51.1 °F 34% 30.02 in 10.0 mi West 6.9 mph - N/A   Mostly Cloudy
2:56 PM 82.9 °F 81.9 °F 54.0 °F 37% 30.00 in 10.0 mi WSW 5.8 mph - N/A   Partly Cloudy
3:56 PM 82.9 °F 82.4 °F 57.0 °F 41% 29.99 in 10.0 mi WSW 12.7 mph 18.4 mph N/A   Overcast
4:56 PM 82.9 °F 82.8 °F 59.0 °F 44% 29.99 in 10.0 mi West 10.4 mph 36.8 mph 0.00 in Rain Light Rain
5:56 PM 82.0 °F 82.0 °F 57.9 °F 44% 29.99 in 10.0 mi WSW 9.2 mph - 0.00 in Rain Light Rain
6:56 PM 81.0 °F 80.8 °F 55.9 °F 42% 29.99 in 10.0 mi Calm Calm - 0.00 in   Clear
7:56 PM 79.0 °F - 55.9 °F 45% 29.99 in 10.0 mi Calm Calm - N/A   Clear
8:56 PM 77.0 °F - 57.9 °F 52% 30.01 in 10.0 mi Calm Calm - N/A   Clear
9:56 PM 75.9 °F - 61.0 °F 60% 30.01 in 10.0 mi Calm Calm - N/A   Clear
10:56 PM 75.0 °F - 57.9 °F 55% 30.00 in 10.0 mi Calm Calm - N/A   Clear
11:56 PM 75.0 °F - 61.0 °F 62% 30.01 in 10.0 mi South 3.5 mph - N/A   Clear